Regional Weather Roundup
Issued by NWS

Home | Current Version | Previous Version | Text Only | Print | Product List | Glossary On
Versions: 1 2 3 4 5 6 7 8 9 10 11 12 13 14 15 16 17 18 19 20 21 22 23 24 25 26 27 28 29 30 31 32 33 34 35 36 37 38 39 40 41 42 43 44 45 46 47 48 49 50
000
ASUS43 KLOT 212100
RWRIL

ILLINOIS REGIONAL WEATHER ROUNDUP
NATIONAL WEATHER SERVICE CHICAGO/ROMEOVILLE IL
400 PM CDT TUE OCT 21 2014

NOTE: "FAIR" INDICATES FEW OR NO CLOUDS BELOW 12,000 FEET WITH NO
SIGNIFICANT WEATHER AND/OR OBSTRUCTIONS TO VISIBILITY.

* THESE STATIONS ARE NOT UNDER NWS QUALITY CONTROL. THEY ALSO MAY NOT
  REPORT WEATHER SUCH AS PRECIPITATION OR FOG.

ILZ001-002-007-009-015-016-024-212200-
NORTHWEST ILLINOIS

CITY           SKY/WX    TMP DP  RH WIND       PRES   REMARKS
MOLINE         SUNNY     59  39  47 E8        30.16F
STERLING*      SUNNY     57  39  51 E12       30.18S
$$

ILZ003-004-008-010-011-017-018-212200-
NORTH CENTRAL ILLINOIS

CITY           SKY/WX    TMP DP  RH WIND       PRES   REMARKS
ROCKFORD       PTSUNNY   53  37  54 NE13      30.22S
FREEPORT*      SUNNY     51  37  59 NE8       30.21S
$$

ILZ005-006-012>014-019>023-212200-
NORTHEAST ILLINOIS

CITY           SKY/WX    TMP DP  RH WIND       PRES   REMARKS
CHICAGO-OHARE  CLOUDY    49  39  68 N14       30.19S
CHICAGO-MIDWAY CLOUDY    52  41  66 N14       30.19R
AURORA         CLOUDY    52  38  58 NE10      30.20R
WAUKEGAN       CLOUDY    48  39  71 N8        30.19S
DUPAGE AIRPORT CLOUDY    50  39  66 NE13      30.19R
WHEELING       CLOUDY    50  39  66 N10       30.20S
NORTHERLY ISL    N/A     50  39  66 N16         N/A
$$

LMZ740>746-212200-
SOUTHERN LAKE MICHIGAN

STATION/POSITION SKY/WX   TEMP    WIND        PRES    VSBY  WAVE
                          AIR SEA DIR/SP/G                  HT/PER
                          (F)     (DEG/KT/KT) (MB)    (MI)  (FT/S)
SOUTHERN BUOY              50 54  350/ 16/ 19 1021.9R         5/ 7
WAUKEGAN HARBOR            49     360/ 15/ 18   N/A
HARRISON CRIB              49     340/ 24/ 27   N/A
BURNHAM HARBOR             50     360/ 11/ 18   N/A
CALUMET HARBOR             51     350/ 11/ 20 1020.8R
MICHIGAN CITY              50     350/ 23/ 25   N/A
$$

ILZ025>027-034>036-040-047-049-050-058-095>099-212200-
WEST-CENTRAL ILLINOIS

CITY           SKY/WX    TMP DP  RH WIND       PRES   REMARKS
QUINCY         SUNNY     63  41  44 NE8       30.13R
GALESBURG*     SUNNY     59  40  49 NE9       30.16S
$$

ILZ028>032-037-038-041>044-048-051>054-059>061-212200-
CENTRAL ILLINOIS

CITY           SKY/WX    TMP DP  RH WIND       PRES   REMARKS
DECATUR        SUNNY     60  39  45 N12       30.14S
PEORIA         SUNNY     61  38  42 NE8       30.16S
LINCOLN*       SUNNY     61  40  46 N8G16     30.14S HAZE
SPRINGFIELD    SUNNY     62  40  44 N9        30.14S
TAYLORVILLE    NOT AVBL
$$

ILZ033-039-045-046-055>057-062-063-212200-
EAST-CENTRAL ILLINOIS

CITY           SKY/WX    TMP DP  RH WIND       PRES   REMARKS
CHAMPAIGN      MOSUNNY   59  39  47 NE13G22   30.15R
MATTOON        SUNNY     59  38  45 N8G20     30.12R
$$

ILZ079-100>102-212200-
SOUTHWEST ILLINOIS

CITY           SKY/WX    TMP DP  RH WIND       PRES   REMARKS
BELLEVILLE     SUNNY     67  44  43 NE9       30.10S
CAHOKIA*       SUNNY     68  45  43 N10       30.11S
$$

ILZ064>066-069>071-074>076-080>082-084>086-088>090-092>094-212200-
SOUTH-CENTRAL ILLINOIS

CITY           SKY/WX    TMP DP  RH WIND       PRES   REMARKS
CARBONDALE     SUNNY     68  43  40 N7        30.09S
MARION         SUNNY     68  46  45 N12       30.10R
MT. VERNON     SUNNY     64  45  48 N7        30.11S
$$

ILZ067-068-072-073-078-083-087-091-212200-
SOUTHEAST ILLINOIS

CITY           SKY/WX    TMP DP  RH WIND       PRES   REMARKS
LAWRENCEVILLE  MOSUNNY   60  42  51 N13       30.12R
CARMI*         MOSUNNY   65  47  51 N9        30.09S
$$

ABBREVIATIONS USED IN REMARKS
   TC - TEMPERATURE IN CELSIUS
  WCI - WIND CHILL INDEX
   HX - HEAT INDEX
  VSB - VISIBILITY
$$




USA.gov is the U.S. government's official web portal to all federal, state and local government web resources and services.